Preview of NWS' New Version of Forecast
This preview is not operational and should not be used for support decisions.

Regional Weather Roundup (RWR)

Issued by National Weather Service (NWS)

                            
000
ASUS43 KMKX 251911
RWRWI 

WISCONSIN REGIONAL WEATHER ROUNDUP
NATIONAL WEATHER SERVICE MILWAUKEE/SULLIVAN WI
200 PM CDT SUN AUG 25 2019

NOTE: "FAIR" INDICATES FEW OR NO CLOUDS BELOW 12,000 FEET WITH NO
SIGNIFICANT WEATHER AND/OR OBSTRUCTIONS TO VISIBILITY.

WIZ001-002-006>008-014>016-023>028-252000-
NORTHWEST WISCONSIN
  
CITY           SKY/WX    TMP DP  RH WIND       PRES   REMARKS
SUPERIOR ARPT  CLOUDY    71  54  55 S7        30.01F                  
ASHLAND        FAIR      72  51  47 S8        30.05F                  
HAYWARD        FAIR      70  53  54 S15G24    30.05F                  
SIREN          PTSUNNY   72  53  51 SE10G18   30.03F                  
CUMBERLAND     FAIR      64  50  59 SE15G24   30.05F                  
RICE LAKE      NOT AVBL                                               
CHETEK         PTSUNNY   68  54  60 S14G21    30.06S                  
LADYSMITH      FAIR      71  53  52 SE13      30.08F                  
EAU CLAIRE     FAIR      70  52  52 SE15G22   30.05F                  
MENOMONIE      FAIR      65  52  64 SE12      30.05S                  
NEW RICHMOND   PTSUNNY   70  51  50 SE12G20   30.03S                  
OSCEOLA        CLOUDY    72  56  58 SE13G22   30.04F                  
$$
 
WIZ003>005-009-010-017-018-252000-
NORTH CENTRAL WISCONSIN
  
CITY           SKY/WX    TMP DP  RH WIND       PRES   REMARKS
MANITOWISH WTR CLOUDY    68  54  60 S8        30.11S                  
ARBOR VITAE    FAIR      72  57  59 S13G18    30.10F                  
WOODRUFF       FAIR      72  57  59 S13G18    30.10F                  
RHINELANDER    PTSUNNY   69  53  56 SE10G21   30.12F                  
EAGLE RIVER    CLOUDY    70  52  53 S8G16     30.11F                  
LAND O LAKES   PTSUNNY   71  53  54 SE8G16    30.13F                  
PHILLIPS       PTSUNNY   69  54  58 S15G21    30.09F                  
TOMAHAWK       PTSUNNY   70  55  59 S3        30.11F                  
MEDFORD        PTSUNNY   68  54  60 SE9       30.10F                  
MERRILL        PTSUNNY   71  55  56 S9G16     30.11F                  
$$
 
WIZ029-030-035-036-043>047-252000-
CENTRAL WISCONSIN
  
CITY           SKY/WX    TMP DP  RH WIND       PRES   REMARKS
WAUSAU         FAIR      71  53  52 S15G21    30.09F                  
MOSINEE        PTSUNNY   70  55  60 SE10G17   30.11F                  
MARSHFIELD     FAIR      73  55  53 S10G20    30.09F                  
STEVENS POINT  PTSUNNY   71  53  52 SE10G17   30.11F                  
WAUPACA        FAIR      76  54  46 SE12G18   30.11F                  
WAUTOMA        PTSUNNY   74  56  53 E9        30.10F                  
WISC RAPIDS    FAIR      72  52  49 SE9G23    30.09F                  
CAMP DOUGLAS   PTSUNNY   72  57  60 SE8       30.08F                  
$$
 
WIZ011>013-019>022-031-037>040-048>050-252000-
NORTHEAST WISCONSIN
  
CITY           SKY/WX    TMP DP  RH WIND       PRES   REMARKS
ANTIGO         FAIR      70  54  58 SE14G21   30.13F                  
SHAWANO        PTSUNNY   74  56  54 SE13      30.12F                  
OCONTO         FAIR      72  56  56 S10       30.14F                  
STURGEON BAY   PTSUNNY   71  58  63 SE13G18   30.16F                  
GREEN BAY      PTSUNNY   74  55  51 SE13G23   30.13F                  
MANITOWOC      FAIR      69  59  70 SE14      30.15S                  
APPLETON       PTSUNNY   72  54  53 SE10      30.12F                  
CLINTONVILLE   PTSUNNY   74  55  50 S13       30.11F                  
OSHKOSH        FAIR      73  54  51 E13       30.11F                  
$$
 
WIZ032>034-041-042-053>061-252000-
SOUTHWEST WISCONSIN
  
CITY           SKY/WX    TMP DP  RH WIND       PRES   REMARKS
LA CROSSE      FAIR      73  56  54 SE10      30.04F                  
SPARTA         FAIR      69  55  62 SE7       30.07F                  
VIROQUA        CLOUDY    64  62  91 SE5       30.07F                  
BOSCOBEL       CLOUDY    71  60  68 E3        30.06F                  
PRAIRIE DU CHI PTSUNNY   71  59  65 E7        30.04F                  
PLATTEVILLE    CLOUDY    71  60  68 SE10      30.06F                  
$$

WIZ056-057-062-063-064-067-068-252000-
SOUTH CENTRAL WISCONSIN
  
CITY           SKY/WX    TMP DP  RH WIND       PRES   REMARKS
REEDSBURG      PTSUNNY   71  56  57 SE5       30.07F                  
BARABOO/DELLS  PTSUNNY   72  56  56 SE10      30.08F                  
LONE ROCK      FAIR      73  56  54 SE10      30.06F                  
MINERAL POINT  PTSUNNY   72  59  64 SE10      30.07S                  
MADISON        PTSUNNY   75  56  51 SE13      30.07F                  
MIDDLETON      CLOUDY    74  53  48 S12       30.08F                  
WATERTOWN      FAIR      74  58  59 SE10G16   30.08F                  
MONROE         FAIR      72  54  52 SE12      30.07F                  
JANESVILLE     PTSUNNY   77  55  47 SE12G17   30.07F                  
$$
 
WIZ051-052-058>065-066-070>072-252000-
SOUTHEAST WISCONSIN
  
CITY           SKY/WX    TMP DP  RH WIND       PRES   REMARKS
MILWAUKEE      PTSUNNY   74  59  59 E15G23    30.11F                  
WAUKESHA       PTSUNNY   70  54  56 SE12      30.11F                  
MILWAUKEE/TIMM MOSUNNY   72  54  53 SE10G16   30.12F                  
RACINE         FAIR      75  57  53 SE15G21   30.12F                  
KENOSHA        FAIR      76  55  48 SE14      30.10F                  
FOND DU LAC    FAIR      74  55  51 E12       30.11F                  
SHEBOYGAN      FAIR      71  58  63 SE12G21   30.13F                  
WEST BEND      PTSUNNY   72  59  64 SE10      30.11F                  
JUNEAU         PTSUNNY   72  57  60 E8        30.10F                  
$$

LSZ147-162-252000-
LAKE SUPERIOR
  
STATION/POSITION TIME  TEMP    WIND        PRES    WAVE
                       AIR SEA DIR/SP/G            HT/PER
                 (UTC) (F)     (DEG/KT/KT) (MB)    (FT/S)
W MID LAKE BUOY  1850   65 64   90/  6/  6 1018.0F   2/ 5
DEVILS ISLAND    1800   71     170/  6/  9 1018.2F
SAXON HARBOR     1830   73     200/  6/ 15 1017.6F
$$
 
LMZ867-665-643>646-252000-
LAKE MICHIGAN
  
STATION/POSITION TIME  TEMP    WIND        PRES    WAVE
                       AIR SEA DIR/SP/G            HT/PER
                 (UTC) (F)     (DEG/KT/KT) (MB)    (FT/S)
S GREEN BAY BUOY 1830   74 70  140/ 12/ 14 1020.9F
N MID LAKE BUOY  1850   67 70   90/  8/ 10 1022.2F   2/ 5
NORTHPORT PIER   1840   68     120/  6/  8 1021.3F
KEWAUNEE LAKESHO 1824   68     150/  8/ 12 1020.8
SHEBOYGAN LAKESH 1900   67     140/ 13/ 15 1020.3F
PORT WASHINGTON  1830   70     140/ 11/ 14 1021.0F
ATWATER BUOY     1830   69 69  140/ 12/ 16 1020.2F   4/ 5
S MID LAKE BUOY  1850   70 72  110/ 12/ 16 1019.8F   3/ 4
KENOSHA   LAKESH 1900   73     140/ 13/ 17 1018.6
$$

TC  - TEMPERATURE IN CELSIUS
VSB - VISIBILITY IN STATUTE MILES
WCI - WIND CHILL INDEX
HX  - HEAT INDEX